| time (UTC) | temp C | wind direction | speed KPH | gust KPH | rain 1hr cm | rain 24hr cm | rain mn cm | humidity % | barometer mb |
| 20260508063052 | 18 | 350 | 1.6 | 6.4 | 0.00 | 0.00 | 0.00 | 60 | 1019.7 |
| 20260508062533 | 18 | 351 | 1.6 | 6.4 | 0.00 | 0.00 | 0.00 | 59 | 1019.5 |
| 20260508062033 | 18 | 351 | 1.6 | 6.4 | 0.00 | 0.00 | 0.00 | 58 | 1019.5 |
| 20260508061549 | 18 | 351 | 3.2 | 8.0 | 0.00 | 0.00 | 0.00 | 58 | 1019.4 |
| 20260508061034 | 18 | 351 | 1.6 | 8.0 | 0.00 | 0.00 | 0.00 | 57 | 1019.2 |
| 20260508060534 | 18 | 351 | 4.8 | 8.0 | 0.00 | 0.00 | 0.00 | 56 | 1019.0 |
| 20260508060049 | 18 | 351 | 3.2 | 6.4 | 0.00 | 0.00 | 0.00 | 57 | 1018.8 |
| 20260508055534 | 18 | 344 | 0.0 | 4.8 | 0.00 | 0.00 | 0.00 | 59 | 1018.6 |
| 20260508055035 | 18 | 344 | 0.0 | 1.6 | 0.00 | 0.00 | 0.00 | 60 | 1018.5 |
| 20260508054604 | 18 | 0 | 0.0 | 0.0 | 0.00 | 0.00 | 0.00 | 61 | 1018.4 |
| 20260508054034 | 18 | 0 | 0.0 | 1.6 | 0.00 | 0.00 | 0.00 | 62 | 1018.3 |
| 20260508053538 | 18 | 0 | 0.0 | 3.2 | 0.00 | 0.00 | 0.00 | 63 | 1018.3 |
| 20260508053048 | 17 | 0 | 0.0 | 3.2 | 0.00 | 0.00 | 0.00 | 62 | 1018.2 |
| 20260508052535 | 17 | 0 | 0.0 | 3.2 | 0.00 | 0.00 | 0.00 | 62 | 1018.0 |
| 20260508052036 | 17 | 0 | 0.0 | 0.0 | 0.00 | 0.00 | 0.00 | 61 | 1017.8 |
| 20260508051551 | 17 | 0 | 0.0 | 0.0 | 0.00 | 0.00 | 0.00 | 61 | 1017.7 |
| 20260508051034 | 17 | 0 | 0.0 | 4.8 | 0.00 | 0.00 | 0.00 | 59 | 1017.6 |
| 20260508050534 | 17 | 0 | 0.0 | 4.8 | 0.00 | 0.00 | 0.00 | 58 | 1017.7 |
| 20260508050051 | 17 | 0 | 3.2 | 4.8 | 0.00 | 0.00 | 0.00 | 58 | 1017.6 |
| 20260508045533 | 17 | 344 | 1.6 | 4.8 | 0.00 | 0.00 | 0.00 | 59 | 1017.8 |
| 20260508045033 | 17 | 355 | 1.6 | 4.8 | 0.00 | 0.00 | 0.00 | 60 | 1017.7 |
| 20260508044557 | 17 | 355 | 0.0 | 1.6 | 0.00 | 0.00 | 0.00 | 61 | 1017.9 |
| 20260508044033 | 16 | 0 | 0.0 | 4.8 | 0.00 | 0.00 | 0.00 | 61 | 1017.9 |
| 20260508043533 | 16 | 0 | 0.0 | 4.8 | 0.00 | 0.00 | 0.00 | 61 | 1017.6 |
| 20260508043049 | 16 | 355 | 1.6 | 4.8 | 0.00 | 0.00 | 0.00 | 61 | 1017.4 |
| 20260508042534 | 16 | 355 | 1.6 | 4.8 | 0.00 | 0.00 | 0.00 | 61 | 1017.3 |
| 20260508042033 | 16 | 0 | 0.0 | 3.2 | 0.00 | 0.00 | 0.00 | 62 | 1017.2 |
| 20260508041557 | 16 | 343 | 0.0 | 1.6 | 0.00 | 0.00 | 0.00 | 62 | 1016.9 |
| 20260508041034 | 16 | 0 | 0.0 | 3.2 | 0.00 | 0.00 | 0.00 | 61 | 1016.8 |
| 20260508040533 | 16 | 0 | 0.0 | 3.2 | 0.00 | 0.00 | 0.00 | 60 | 1016.7 |
| 20260508040056 | 16 | 343 | 1.6 | 4.8 | 0.00 | 0.00 | 0.00 | 60 | 1016.7 |
| 20260508035534 | 16 | 343 | 1.6 | 6.4 | 0.00 | 0.00 | 0.00 | 61 | 1016.7 |
| 20260508035034 | 16 | 343 | 3.2 | 6.4 | 0.00 | 0.00 | 0.00 | 61 | 1016.7 |
| 20260508034553 | 16 | 340 | 1.6 | 6.4 | 0.00 | 0.00 | 0.00 | 63 | 1016.6 |
| 20260508034035 | 16 | 352 | 3.2 | 6.4 | 0.00 | 0.00 | 0.00 | 65 | 1016.7 |
| 20260508033533 | 16 | 352 | 3.2 | 4.8 | 0.00 | 0.00 | 0.00 | 66 | 1016.7 |
| 20260508033052 | 16 | 349 | 0.0 | 3.2 | 0.00 | 0.00 | 0.00 | 67 | 1016.4 |
| 20260508032536 | 16 | 349 | 0.0 | 6.4 | 0.00 | 0.00 | 0.00 | 68 | 1016.6 |
| 20260508032035 | 16 | 0 | 0.0 | 6.4 | 0.00 | 0.00 | 0.00 | 68 | 1016.5 |
| 20260508031557 | 16 | 348 | 1.6 | 6.4 | 0.00 | 0.00 | 0.00 | 69 | 1016.5 |
| 20260508031033 | 16 | 0 | 0.0 | 4.8 | 0.00 | 0.00 | 0.00 | 72 | 1016.5 |
| 20260508030534 | 16 | 0 | 0.0 | 1.6 | 0.00 | 0.00 | 0.00 | 73 | 1016.5 |
| 20260508030105 | 16 | 0 | 0.0 | 1.6 | 0.00 | 0.00 | 0.00 | 74 | 1016.5 |
| 20260508025533 | 16 | 0 | 0.0 | 3.2 | 0.00 | 0.00 | 0.00 | 75 | 1016.5 |
| 20260508025034 | 16 | 0 | 0.0 | 3.2 | 0.00 | 0.00 | 0.00 | 75 | 1016.7 |
| 20260508024549 | 16 | 352 | 0.0 | 3.2 | 0.00 | 0.00 | 0.00 | 75 | 1016.7 |
| 20260508024034 | 16 | 0 | 0.0 | 0.0 | 0.00 | 0.00 | 0.00 | 75 | 1016.8 |
| 20260508023533 | 16 | 0 | 0.0 | 0.0 | 0.00 | 0.00 | 0.00 | 75 | 1016.8 |
| 20260508023049 | 16 | 0 | 0.0 | 1.6 | 0.00 | 0.00 | 0.00 | 75 | 1016.8 |
| 20260508022536 | 16 | 0 | 0.0 | 1.6 | 0.00 | 0.00 | 0.00 | 75 | 1016.8 |
| 20260508022035 | 16 | 0 | 0.0 | 3.2 | 0.00 | 0.00 | 0.00 | 75 | 1016.8 |
| 20260508021605 | 16 | 0 | 0.0 | 3.2 | 0.00 | 0.00 | 0.00 | 75 | 1016.8 |
| 20260508021035 | 16 | 352 | 0.0 | 3.2 | 0.00 | 0.00 | 0.00 | 75 | 1016.7 |
| 20260508020533 | 16 | 352 | 0.0 | 3.2 | 0.00 | 0.00 | 0.00 | 75 | 1016.7 |
| 20260508020047 | 16 | 0 | 0.0 | 3.2 | 0.00 | 0.00 | 0.00 | 75 | 1016.7 |
| 20260508015532 | 17 | 0 | 0.0 | 1.6 | 0.00 | 0.00 | 0.00 | 75 | 1016.7 |
| 20260508015033 | 17 | 0 | 0.0 | 0.0 | 0.00 | 0.00 | 0.00 | 74 | 1016.7 |
| 20260508014546 | 17 | 0 | 0.0 | 1.6 | 0.00 | 0.00 | 0.00 | 74 | 1016.9 |
| 20260508014035 | 17 | 0 | 0.0 | 3.2 | 0.00 | 0.00 | 0.00 | 75 | 1016.9 |
| 20260508013533 | 17 | 0 | 0.0 | 3.2 | 0.00 | 0.00 | 0.00 | 75 | 1017.0 |
| 20260508013048 | 16 | 352 | 1.6 | 3.2 | 0.00 | 0.00 | 0.00 | 75 | 1017.1 |
| 20260508012534 | 16 | 352 | 0.0 | 3.2 | 0.00 | 0.00 | 0.00 | 75 | 1017.1 |
| 20260508012034 | 16 | 0 | 0.0 | 3.2 | 0.00 | 0.00 | 0.00 | 75 | 1017.2 |
| 20260508011557 | 17 | 0 | 0.0 | 1.6 | 0.00 | 0.00 | 0.00 | 75 | 1017.2 |
| 20260508011034 | 17 | 0 | 0.0 | 3.2 | 0.00 | 0.00 | 0.00 | 75 | 1017.3 |
| 20260508010536 | 17 | 0 | 0.0 | 3.2 | 0.00 | 0.00 | 0.00 | 75 | 1017.3 |
| 20260508010048 | 17 | 0 | 0.0 | 4.8 | 0.00 | 0.00 | 0.00 | 74 | 1017.4 |
| 20260508005533 | 17 | 0 | 0.0 | 4.8 | 0.00 | 0.00 | 0.00 | 75 | 1017.6 |
| 20260508005034 | 17 | 0 | 0.0 | 3.2 | 0.00 | 0.00 | 0.00 | 74 | 1017.5 |
| 20260508004556 | 17 | 0 | 0.0 | 6.4 | 0.00 | 0.00 | 0.00 | 74 | 1017.5 |
| 20260508004034 | 17 | 352 | 0.0 | 6.4 | 0.00 | 0.00 | 0.00 | 74 | 1017.6 |
| 20260508003535 | 17 | 352 | 1.6 | 6.4 | 0.00 | 0.00 | 0.00 | 74 | 1017.5 |
| 20260508003100 | 17 | 352 | 3.2 | 6.4 | 0.00 | 0.00 | 0.00 | 75 | 1017.5 |
| 20260508002534 | 17 | 0 | 1.6 | 4.8 | 0.00 | 0.00 | 0.00 | 75 | 1017.5 |
| 20260508002033 | 17 | 350 | 1.6 | 3.2 | 0.00 | 0.00 | 0.00 | 75 | 1017.5 |
| 20260508001550 | 17 | 350 | 0.0 | 3.2 | 0.00 | 0.00 | 0.00 | 76 | 1017.5 |
| 20260508001033 | 17 | 0 | 0.0 | 3.2 | 0.00 | 0.00 | 0.00 | 76 | 1017.4 |
| 20260508000538 | 17 | 0 | 0.0 | 3.2 | 0.00 | 0.00 | 0.00 | 76 | 1017.4 |
| 20260508000054 | 17 | 0 | 0.0 | 3.2 | 0.00 | 0.00 | 0.00 | 76 | 1017.5 |
| 20260507235536 | 17 | 0 | 0.0 | 1.6 | 0.00 | 0.00 | 0.00 | 75 | 1017.5 |
| 20260507235034 | 17 | 0 | 0.0 | 1.6 | 0.00 | 0.00 | 0.00 | 75 | 1017.6 |
| 20260507234551 | 17 | 351 | 0.0 | 1.6 | 0.00 | 0.00 | 0.00 | 75 | 1017.7 |
| 20260507234034 | 17 | 0 | 0.0 | 0.0 | 0.00 | 0.00 | 0.00 | 75 | 1017.9 |
| 20260507233534 | 17 | 0 | 0.0 | 0.0 | 0.00 | 0.00 | 0.00 | 75 | 1017.9 |
| 20260507233048 | 17 | 0 | 0.0 | 3.2 | 0.00 | 0.00 | 0.00 | 75 | 1018.0 |
| 20260507232536 | 17 | 0 | 0.0 | 6.4 | 0.00 | 0.00 | 0.00 | 75 | 1018.2 |
| 20260507232033 | 17 | 0 | 0.0 | 6.4 | 0.00 | 0.00 | 0.00 | 75 | 1018.1 |
| 20260507231555 | 17 | 350 | 0.0 | 6.4 | 0.00 | 0.00 | 0.00 | 75 | 1018.2 |
| 20260507231034 | 17 | 351 | 1.6 | 3.2 | 0.00 | 0.00 | 0.00 | 75 | 1018.1 |
| 20260507230536 | 17 | 0 | 0.0 | 6.4 | 0.00 | 0.00 | 0.00 | 75 | 1018.1 |
| 20260507230050 | 17 | 350 | 1.6 | 9.7 | 0.00 | 0.00 | 0.00 | 74 | 1018.0 |
| 20260507225533 | 17 | 350 | 3.2 | 14.5 | 0.00 | 0.00 | 0.00 | 74 | 1018.1 |
| 20260507225034 | 17 | 350 | 4.8 | 14.5 | 0.00 | 0.00 | 0.00 | 73 | 1018.2 |
| 20260507224558 | 17 | 349 | 3.2 | 12.9 | 0.00 | 0.00 | 0.00 | 73 | 1018.3 |
| 20260507224033 | 17 | 0 | 1.6 | 12.9 | 0.00 | 0.00 | 0.00 | 73 | 1018.4 |
| 20260507223533 | 17 | 350 | 3.2 | 14.5 | 0.00 | 0.00 | 0.00 | 72 | 1018.5 |
| 20260507223049 | 17 | 350 | 4.8 | 17.7 | 0.00 | 0.00 | 0.00 | 72 | 1018.5 |
| 20260507222533 | 17 | 349 | 3.2 | 17.7 | 0.00 | 0.00 | 0.00 | 71 | 1018.5 |
| 20260507222033 | 17 | 350 | 8.0 | 17.7 | 0.00 | 0.00 | 0.00 | 71 | 1018.4 |
| 20260507221551 | 17 | 349 | 6.4 | 16.1 | 0.00 | 0.00 | 0.00 | 71 | 1018.6 |
| 20260507221034 | 17 | 350 | 8.0 | 16.1 | 0.00 | 0.00 | 0.00 | 71 | 1018.5 |
| 20260507220532 | 17 | 350 | 6.4 | 16.1 | 0.00 | 0.00 | 0.00 | 71 | 1018.5 |
| 20260507220047 | 17 | 350 | 6.4 | 16.1 | 0.00 | 0.00 | 0.00 | 70 | 1018.5 |
| 20260507215535 | 17 | 350 | 4.8 | 16.1 | 0.00 | 0.00 | 0.00 | 69 | 1018.6 |
| 20260507215034 | 17 | 349 | 4.8 | 16.1 | 0.00 | 0.00 | 0.00 | 69 | 1018.7 |
| 20260507214546 | 17 | 350 | 6.4 | 12.9 | 0.00 | 0.00 | 0.00 | 68 | 1018.8 |
| 20260507214033 | 18 | 350 | 6.4 | 12.9 | 0.00 | 0.00 | 0.00 | 68 | 1018.9 |
| 20260507213534 | 18 | 350 | 6.4 | 16.1 | 0.00 | 0.00 | 0.00 | 68 | 1018.9 |
| 20260507213050 | 18 | 350 | 6.4 | 16.1 | 0.00 | 0.00 | 0.00 | 67 | 1018.9 |
| 20260507212533 | 18 | 350 | 8.0 | 16.1 | 0.00 | 0.00 | 0.00 | 66 | 1018.9 |
| 20260507212034 | 18 | 348 | 4.8 | 14.5 | 0.00 | 0.00 | 0.00 | 65 | 1018.8 |
| 20260507211551 | 18 | 350 | 4.8 | 14.5 | 0.00 | 0.00 | 0.00 | 64 | 1018.9 |
| 20260507211033 | 18 | 350 | 3.2 | 14.5 | 0.00 | 0.00 | 0.00 | 64 | 1018.9 |
| 20260507210533 | 18 | 350 | 3.2 | 17.7 | 0.00 | 0.00 | 0.00 | 63 | 1018.8 |
| 20260507210116 | 18 | 350 | 4.8 | 17.7 | 0.00 | 0.00 | 0.00 | 63 | 1018.9 |
| 20260507205533 | 18 | 350 | 4.8 | 12.9 | 0.00 | 0.00 | 0.00 | 62 | 1018.9 |
| 20260507205033 | 18 | 348 | 4.8 | 9.7 | 0.00 | 0.00 | 0.00 | 61 | 1018.9 |
| 20260507204541 | 18 | 350 | 3.2 | 12.9 | 0.00 | 0.00 | 0.00 | 60 | 1018.9 |
| 20260507204034 | 18 | 350 | 1.6 | 12.9 | 0.00 | 0.00 | 0.00 | 59 | 1018.9 |
| 20260507203534 | 18 | 349 | 4.8 | 12.9 | 0.00 | 0.00 | 0.00 | 59 | 1019.0 |
| 20260507203051 | 18 | 0 | 0.0 | 8.0 | 0.00 | 0.00 | 0.00 | 58 | 1018.8 |
| 20260507202536 | 18 | 349 | 1.6 | 8.0 | 0.00 | 0.00 | 0.00 | 57 | 1018.9 |
| 20260507202033 | 18 | 349 | 1.6 | 14.5 | 0.00 | 0.00 | 0.00 | 57 | 1018.9 |
| 20260507201547 | 18 | 349 | 0.0 | 14.5 | 0.00 | 0.00 | 0.00 | 57 | 1018.8 |
| 20260507201033 | 18 | 349 | 0.0 | 4.8 | 0.00 | 0.00 | 0.00 | 57 | 1018.8 |
| 20260507200534 | 18 | 0 | 0.0 | 9.7 | 0.00 | 0.00 | 0.00 | 56 | 1018.8 |
| 20260507195538 | 18 | 349 | 4.8 | 9.7 | 0.00 | 0.00 | 0.00 | 56 | 1018.7 |
| 20260507195036 | 18 | 0 | 3.2 | 9.7 | 0.00 | 0.00 | 0.00 | 55 | 1018.8 |
| 20260507194545 | 18 | 348 | 1.6 | 12.9 | 0.00 | 0.00 | 0.00 | 55 | 1018.8 |
| 20260507194033 | 18 | 347 | 3.2 | 12.9 | 0.00 | 0.00 | 0.00 | 55 | 1018.8 |
| 20260507193535 | 18 | 0 | 4.8 | 12.9 | 0.00 | 0.00 | 0.00 | 55 | 1018.7 |
| 20260507193111 | 18 | 349 | 3.2 | 9.7 | 0.00 | 0.00 | 0.00 | 56 | 1018.8 |
| 20260507192532 | 18 | 350 | 3.2 | 9.7 | 0.00 | 0.00 | 0.00 | 55 | 1018.6 |
| 20260507192034 | 18 | 348 | 4.8 | 12.9 | 0.00 | 0.00 | 0.00 | 55 | 1018.6 |
| 20260507191557 | 18 | 348 | 3.2 | 12.9 | 0.00 | 0.00 | 0.00 | 55 | 1018.6 |
| 20260507191034 | 18 | 348 | 3.2 | 16.1 | 0.00 | 0.00 | 0.00 | 55 | 1018.5 |
| 20260507190534 | 18 | 347 | 4.8 | 16.1 | 0.00 | 0.00 | 0.00 | 55 | 1018.4 |
| 20260507190048 | 18 | 349 | 6.4 | 16.1 | 0.00 | 0.00 | 0.00 | 56 | 1018.5 |
| 20260507185533 | 18 | 348 | 4.8 | 16.1 | 0.00 | 0.00 | 0.00 | 55 | 1018.6 |
| 20260507185033 | 18 | 350 | 4.8 | 16.1 | 0.00 | 0.00 | 0.00 | 56 | 1018.6 |
| 20260507184547 | 18 | 349 | 6.4 | 16.1 | 0.00 | 0.00 | 0.00 | 56 | 1018.7 |
| 20260507184033 | 18 | 350 | 4.8 | 16.1 | 0.00 | 0.00 | 0.00 | 55 | 1018.7 |
| 20260507183533 | 18 | 348 | 4.8 | 14.5 | 0.00 | 0.00 | 0.00 | 55 | 1018.5 |
| 20260507183059 | 18 | 349 | 3.2 | 14.5 | 0.00 | 0.00 | 0.00 | 55 | 1018.5 |
| 20260507182533 | 18 | 350 | 3.2 | 14.5 | 0.00 | 0.00 | 0.00 | 54 | 1018.5 |
| 20260507182033 | 18 | 349 | 4.8 | 14.5 | 0.00 | 0.00 | 0.00 | 54 | 1018.5 |
| 20260507181546 | 18 | 348 | 3.2 | 12.9 | 0.00 | 0.00 | 0.00 | 54 | 1018.5 |
| 20260507181034 | 18 | 348 | 4.8 | 12.9 | 0.00 | 0.00 | 0.00 | 54 | 1018.5 |
| 20260507180533 | 18 | 349 | 4.8 | 9.7 | 0.00 | 0.00 | 0.00 | 53 | 1018.5 |
| 20260507180056 | 18 | 0 | 1.6 | 9.7 | 0.00 | 0.00 | 0.00 | 53 | 1018.5 |
| 20260507175533 | 18 | 350 | 3.2 | 9.7 | 0.00 | 0.00 | 0.00 | 53 | 1018.4 |
| 20260507175034 | 18 | 349 | 4.8 | 9.7 | 0.00 | 0.00 | 0.00 | 53 | 1018.4 |
| 20260507174549 | 18 | 348 | 3.2 | 8.0 | 0.00 | 0.00 | 0.00 | 53 | 1018.4 |
| 20260507174035 | 18 | 348 | 3.2 | 8.0 | 0.00 | 0.00 | 0.00 | 52 | 1018.3 |
| 20260507173533 | 18 | 349 | 1.6 | 8.0 | 0.00 | 0.00 | 0.00 | 53 | 1018.4 |
| 20260507173123 | 18 | 350 | 0.0 | 8.0 | 0.00 | 0.00 | 0.00 | 54 | 1018.5 |
| 20260507172533 | 18 | 350 | 0.0 | 8.0 | 0.00 | 0.00 | 0.00 | 53 | 1018.6 |
| 20260507172036 | 18 | 0 | 1.6 | 9.7 | 0.00 | 0.00 | 0.00 | 53 | 1018.5 |
| 20260507171548 | 18 | 0 | 3.2 | 14.5 | 0.00 | 0.00 | 0.00 | 52 | 1018.6 |
| 20260507171033 | 18 | 350 | 3.2 | 16.1 | 0.00 | 0.00 | 0.00 | 52 | 1018.4 |
| 20260507170535 | 18 | 348 | 6.4 | 17.7 | 0.00 | 0.00 | 0.00 | 52 | 1018.3 |
| 20260507170049 | 18 | 349 | 6.4 | 17.7 | 0.00 | 0.00 | 0.00 | 52 | 1018.0 |
| 20260507165534 | 19 | 349 | 8.0 | 17.7 | 0.00 | 0.00 | 0.00 | 53 | 1017.9 |
| 20260507165034 | 19 | 350 | 9.7 | 17.7 | 0.00 | 0.00 | 0.00 | 53 | 1017.8 |
| 20260507164553 | 18 | 350 | 6.4 | 17.7 | 0.00 | 0.00 | 0.00 | 53 | 1017.7 |
| 20260507164035 | 18 | 350 | 8.0 | 16.1 | 0.00 | 0.00 | 0.00 | 54 | 1017.8 |
| 20260507163533 | 18 | 348 | 6.4 | 19.3 | 0.00 | 0.00 | 0.00 | 55 | 1018.0 |
| 20260507163051 | 18 | 348 | 6.4 | 19.3 | 0.00 | 0.00 | 0.00 | 56 | 1018.2 |
| 20260507162533 | 18 | 350 | 11.3 | 17.7 | 0.00 | 0.00 | 0.00 | 56 | 1018.1 |
| 20260507162033 | 18 | 350 | 8.0 | 16.1 | 0.00 | 0.00 | 0.00 | 57 | 1018.2 |
| 20260507161605 | 19 | 349 | 9.7 | 17.7 | 0.00 | 0.00 | 0.00 | 57 | 1018.1 |
| 20260507161033 | 19 | 348 | 9.7 | 17.7 | 0.00 | 0.00 | 0.00 | 58 | 1018.2 |
| 20260507160534 | 19 | 349 | 8.0 | 19.3 | 0.00 | 0.00 | 0.00 | 58 | 1017.9 |
| 20260507155533 | 19 | 349 | 11.3 | 19.3 | 0.00 | 0.00 | 0.00 | 59 | 1018.1 |
| 20260507155034 | 19 | 349 | 8.0 | 22.5 | 0.00 | 0.00 | 0.00 | 59 | 1018.3 |
| 20260507154548 | 19 | 348 | 6.4 | 22.5 | 0.00 | 0.00 | 0.00 | 59 | 1018.2 |
| 20260507154034 | 19 | 349 | 8.0 | 20.9 | 0.00 | 0.00 | 0.00 | 58 | 1018.4 |
| 20260507153533 | 20 | 349 | 9.7 | 20.9 | 0.00 | 0.00 | 0.00 | 59 | 1018.3 |
| 20260507153046 | 20 | 349 | 8.0 | 16.1 | 0.00 | 0.00 | 0.00 | 58 | 1018.4 |
| 20260507152533 | 20 | 349 | 9.7 | 19.3 | 0.00 | 0.00 | 0.00 | 59 | 1018.5 |
| 20260507152033 | 20 | 350 | 8.0 | 19.3 | 0.00 | 0.00 | 0.00 | 60 | 1018.5 |
| 20260507151544 | 20 | 348 | 9.7 | 19.3 | 0.00 | 0.00 | 0.00 | 59 | 1018.5 |
| 20260507151033 | 20 | 350 | 4.8 | 19.3 | 0.00 | 0.00 | 0.00 | 61 | 1018.4 |
| 20260507150536 | 20 | 350 | 8.0 | 19.3 | 0.00 | 0.00 | 0.00 | 61 | 1018.4 |
| 20260507150051 | 20 | 350 | 8.0 | 19.3 | 0.00 | 0.00 | 0.00 | 61 | 1018.4 |
| 20260507145533 | 20 | 349 | 11.3 | 19.3 | 0.00 | 0.00 | 0.00 | 60 | 1018.4 |
| 20260507145033 | 20 | 350 | 8.0 | 19.3 | 0.00 | 0.00 | 0.00 | 59 | 1018.4 |
| 20260507144557 | 20 | 349 | 9.7 | 19.3 | 0.00 | 0.00 | 0.00 | 59 | 1018.4 |
| 20260507144036 | 20 | 350 | 6.4 | 19.3 | 0.00 | 0.00 | 0.00 | 60 | 1018.5 |
| 20260507143533 | 20 | 348 | 11.3 | 20.9 | 0.00 | 0.00 | 0.00 | 59 | 1018.5 |
| 20260507143047 | 20 | 350 | 8.0 | 20.9 | 0.00 | 0.00 | 0.00 | 59 | 1018.4 |
| 20260507142535 | 20 | 348 | 12.9 | 20.9 | 0.00 | 0.00 | 0.00 | 59 | 1018.4 |
| 20260507142036 | 20 | 349 | 14.5 | 22.5 | 0.00 | 0.00 | 0.00 | 58 | 1018.4 |
| 20260507141554 | 20 | 348 | 14.5 | 22.5 | 0.00 | 0.00 | 0.00 | 58 | 1018.4 |
| 20260507141033 | 21 | 349 | 9.7 | 24.1 | 0.00 | 0.00 | 0.00 | 58 | 1018.4 |
| 20260507140535 | 20 | 348 | 9.7 | 24.1 | 0.00 | 0.00 | 0.00 | 56 | 1018.3 |
| 20260507140058 | 21 | 348 | 12.9 | 24.1 | 0.00 | 0.00 | 0.00 | 55 | 1018.1 |
| 20260507135535 | 21 | 349 | 12.9 | 27.4 | 0.00 | 0.00 | 0.00 | 55 | 1018.0 |
| 20260507135033 | 21 | 350 | 12.9 | 27.4 | 0.00 | 0.00 | 0.00 | 55 | 1018.1 |
| 20260507134602 | 21 | 349 | 12.9 | 24.1 | 0.00 | 0.00 | 0.00 | 53 | 1018.1 |
| 20260507134035 | 21 | 349 | 17.7 | 24.1 | 0.00 | 0.00 | 0.00 | 49 | 1017.9 |
| 20260507133536 | 21 | 349 | 14.5 | 25.7 | 0.00 | 0.00 | 0.00 | 46 | 1018.1 |
| 20260507133052 | 21 | 348 | 16.1 | 25.7 | 0.00 | 0.00 | 0.00 | 47 | 1018.0 |
| 20260507132533 | 21 | 349 | 12.9 | 25.7 | 0.00 | 0.00 | 0.00 | 51 | 1018.0 |
| 20260507132035 | 21 | 349 | 14.5 | 27.4 | 0.00 | 0.00 | 0.00 | 51 | 1018.0 |
| 20260507131556 | 21 | 351 | 14.5 | 27.4 | 0.00 | 0.00 | 0.00 | 54 | 1018.0 |
| 20260507131034 | 21 | 350 | 16.1 | 27.4 | 0.00 | 0.00 | 0.00 | 55 | 1018.1 |
| 20260507130534 | 21 | 349 | 11.3 | 24.1 | 0.00 | 0.00 | 0.00 | 59 | 1018.1 |
| 20260507130050 | 21 | 350 | 12.9 | 24.1 | 0.00 | 0.00 | 0.00 | 59 | 1018.1 |
| 20260507125535 | 21 | 349 | 14.5 | 24.1 | 0.00 | 0.00 | 0.00 | 61 | 1018.1 |
| 20260507125036 | 21 | 349 | 14.5 | 24.1 | 0.00 | 0.00 | 0.00 | 64 | 1018.2 |
| 20260507124554 | 21 | 348 | 12.9 | 24.1 | 0.00 | 0.00 | 0.00 | 67 | 1018.6 |
| 20260507124035 | 21 | 349 | 12.9 | 24.1 | 0.00 | 0.00 | 0.00 | 67 | 1018.6 |
| 20260507123535 | 21 | 349 | 11.3 | 22.5 | 0.00 | 0.00 | 0.00 | 69 | 1018.5 |
| 20260507123051 | 20 | 348 | 6.4 | 19.3 | 0.00 | 0.00 | 0.00 | 70 | 1018.5 |
| 20260507122533 | 20 | 349 | 8.0 | 20.9 | 0.00 | 0.00 | 0.00 | 68 | 1018.5 |
| 20260507122035 | 20 | 349 | 9.7 | 20.9 | 0.00 | 0.00 | 0.00 | 68 | 1018.6 |
| 20260507121552 | 20 | 348 | 9.7 | 20.9 | 0.00 | 0.00 | 0.00 | 68 | 1018.7 |
| 20260507121032 | 20 | 350 | 8.0 | 19.3 | 0.00 | 0.00 | 0.00 | 69 | 1018.6 |
| 20260507120535 | 20 | 349 | 9.7 | 22.5 | 0.00 | 0.00 | 0.00 | 68 | 1018.6 |
| 20260507120051 | 20 | 349 | 8.0 | 22.5 | 0.00 | 0.00 | 0.00 | 68 | 1018.7 |
| 20260507115536 | 20 | 350 | 4.8 | 19.3 | 0.00 | 0.00 | 0.00 | 68 | 1018.5 |
| 20260507115033 | 20 | 350 | 12.9 | 20.9 | 0.00 | 0.00 | 0.00 | 65 | 1018.6 |
| 20260507114555 | 21 | 350 | 11.3 | 20.9 | 0.00 | 0.00 | 0.00 | 64 | 1018.8 |
| 20260507114035 | 21 | 350 | 8.0 | 19.3 | 0.00 | 0.00 | 0.00 | 63 | 1018.8 |
| 20260507113534 | 21 | 348 | 8.0 | 22.5 | 0.00 | 0.00 | 0.00 | 62 | 1018.8 |
| 20260507113050 | 21 | 349 | 9.7 | 22.5 | 0.00 | 0.00 | 0.00 | 63 | 1018.8 |
| 20260507112533 | 21 | 349 | 11.3 | 20.9 | 0.00 | 0.00 | 0.00 | 62 | 1018.9 |
| 20260507112033 | 21 | 349 | 8.0 | 17.7 | 0.00 | 0.00 | 0.00 | 60 | 1019.1 |
| 20260507111559 | 21 | 350 | 8.0 | 17.7 | 0.00 | 0.00 | 0.00 | 63 | 1019.0 |
| 20260507111033 | 20 | 351 | 4.8 | 16.1 | 0.00 | 0.00 | 0.00 | 67 | 1018.9 |
| 20260507110533 | 20 | 350 | 6.4 | 16.1 | 0.00 | 0.00 | 0.00 | 68 | 1018.8 |
| 20260507110046 | 20 | 350 | 8.0 | 19.3 | 0.00 | 0.00 | 0.00 | 68 | 1018.9 |
| 20260507105533 | 21 | 350 | 6.4 | 19.3 | 0.00 | 0.00 | 0.00 | 67 | 1018.9 |
| 20260507105033 | 21 | 350 | 8.0 | 24.1 | 0.00 | 0.00 | 0.00 | 63 | 1018.9 |
| 20260507104554 | 21 | 350 | 12.9 | 24.1 | 0.00 | 0.00 | 0.00 | 62 | 1018.8 |
| 20260507104034 | 21 | 348 | 12.9 | 20.9 | 0.00 | 0.00 | 0.00 | 63 | 1018.7 |
| 20260507103534 | 21 | 350 | 8.0 | 17.7 | 0.00 | 0.00 | 0.00 | 65 | 1018.6 |
| 20260507103048 | 21 | 350 | 9.7 | 16.1 | 0.00 | 0.00 | 0.00 | 66 | 1018.3 |
| 20260507102533 | 21 | 348 | 9.7 | 16.1 | 0.00 | 0.00 | 0.00 | 67 | 1018.3 |
| 20260507102033 | 21 | 350 | 8.0 | 14.5 | 0.00 | 0.00 | 0.00 | 66 | 1018.3 |
| 20260507101601 | 21 | 350 | 4.8 | 17.7 | 0.00 | 0.00 | 0.00 | 66 | 1018.4 |
| 20260507101034 | 21 | 349 | 4.8 | 17.7 | 0.00 | 0.00 | 0.00 | 68 | 1018.3 |
| 20260507100534 | 20 | 350 | 9.7 | 17.7 | 0.00 | 0.00 | 0.00 | 69 | 1018.4 |
| 20260507100051 | 20 | 350 | 9.7 | 20.9 | 0.00 | 0.00 | 0.00 | 67 | 1018.5 |
| 20260507095535 | 21 | 350 | 11.3 | 20.9 | 0.00 | 0.00 | 0.00 | 65 | 1018.6 |
| 20260507095034 | 21 | 350 | 11.3 | 20.9 | 0.00 | 0.00 | 0.00 | 64 | 1018.5 |
| 20260507094550 | 21 | 350 | 11.3 | 20.9 | 0.00 | 0.00 | 0.00 | 63 | 1018.5 |
| 20260507094033 | 21 | 350 | 9.7 | 20.9 | 0.00 | 0.00 | 0.00 | 62 | 1018.3 |
| 20260507093533 | 22 | 347 | 11.3 | 17.7 | 0.00 | 0.00 | 0.00 | 61 | 1018.3 |
| 20260507093047 | 21 | 350 | 9.7 | 17.7 | 0.00 | 0.00 | 0.00 | 62 | 1018.3 |
| 20260507092533 | 21 | 351 | 8.0 | 16.1 | 0.00 | 0.00 | 0.00 | 64 | 1018.4 |
| 20260507092033 | 21 | 350 | 8.0 | 16.1 | 0.00 | 0.00 | 0.00 | 63 | 1018.4 |
| 20260507091543 | 21 | 350 | 8.0 | 16.1 | 0.00 | 0.00 | 0.00 | 61 | 1018.3 |
| 20260507091033 | 21 | 349 | 6.4 | 16.1 | 0.00 | 0.00 | 0.00 | 63 | 1018.3 |
| 20260507090534 | 21 | 350 | 3.2 | 16.1 | 0.00 | 0.00 | 0.00 | 66 | 1018.3 |
| 20260507090049 | 21 | 350 | 6.4 | 16.1 | 0.00 | 0.00 | 0.00 | 67 | 1018.3 |
| 20260507085533 | 21 | 347 | 6.4 | 14.5 | 0.00 | 0.00 | 0.00 | 70 | 1018.3 |
| 20260507085034 | 20 | 349 | 3.2 | 14.5 | 0.00 | 0.00 | 0.00 | 71 | 1018.4 |
| 20260507084548 | 20 | 349 | 6.4 | 16.1 | 0.00 | 0.00 | 0.00 | 70 | 1018.4 |
| 20260507084034 | 20 | 350 | 6.4 | 16.1 | 0.00 | 0.00 | 0.00 | 69 | 1018.4 |
| 20260507083535 | 20 | 350 | 9.7 | 16.1 | 0.00 | 0.00 | 0.00 | 69 | 1018.3 |
| 20260507083048 | 20 | 350 | 8.0 | 14.5 | 0.00 | 0.00 | 0.00 | 67 | 1018.2 |
| 20260507082532 | 20 | 351 | 6.4 | 16.1 | 0.00 | 0.00 | 0.00 | 67 | 1018.2 |
| 20260507082033 | 20 | 350 | 8.0 | 16.1 | 0.00 | 0.00 | 0.00 | 70 | 1018.1 |
| 20260507081549 | 20 | 351 | 8.0 | 14.5 | 0.00 | 0.00 | 0.00 | 69 | 1018.1 |
| 20260507081034 | 20 | 350 | 6.4 | 14.5 | 0.00 | 0.00 | 0.00 | 71 | 1018.1 |
| 20260507080536 | 20 | 351 | 4.8 | 14.5 | 0.00 | 0.00 | 0.00 | 72 | 1018.2 |
| 20260507080047 | 20 | 350 | 6.4 | 14.5 | 0.00 | 0.00 | 0.00 | 73 | 1018.1 |
| 20260507075533 | 20 | 351 | 6.4 | 14.5 | 0.00 | 0.00 | 0.00 | 73 | 1018.0 |
| 20260507075033 | 20 | 351 | 6.4 | 14.5 | 0.00 | 0.00 | 0.00 | 73 | 1017.9 |
| 20260507074550 | 20 | 350 | 3.2 | 14.5 | 0.00 | 0.00 | 0.00 | 73 | 1018.0 |
| 20260507074035 | 20 | 351 | 8.0 | 14.5 | 0.00 | 0.00 | 0.00 | 73 | 1017.9 |
| 20260507073533 | 20 | 351 | 6.4 | 12.9 | 0.00 | 0.00 | 0.00 | 72 | 1017.8 |
| 20260507073046 | 20 | 350 | 1.6 | 8.0 | 0.00 | 0.00 | 0.00 | 73 | 1017.8 |
| 20260507072534 | 20 | 351 | 1.6 | 9.7 | 0.00 | 0.00 | 0.00 | 74 | 1017.8 |
| 20260507072032 | 19 | 351 | 3.2 | 9.7 | 0.00 | 0.00 | 0.00 | 73 | 1017.8 |
| 20260507071551 | 19 | 351 | 1.6 | 9.7 | 0.00 | 0.00 | 0.00 | 73 | 1017.8 |
| 20260507071036 | 19 | 351 | 3.2 | 9.7 | 0.00 | 0.00 | 0.00 | 74 | 1018.0 |
| 20260507070533 | 18 | 350 | 4.8 | 9.7 | 0.00 | 0.00 | 0.00 | 74 | 1018.0 |
| 20260507070053 | 18 | 350 | 3.2 | 16.1 | 0.00 | 0.00 | 0.00 | 73 | 1018.1 |
| 20260507065532 | 18 | 350 | 6.4 | 17.7 | 0.00 | 0.00 | 0.00 | 74 | 1018.2 |
| 20260507065033 | 18 | 351 | 11.3 | 17.7 | 0.00 | 0.00 | 0.00 | 72 | 1018.1 |
| 20260507064606 | 18 | 351 | 11.3 | 17.7 | 0.00 | 0.00 | 0.00 | 70 | 1018.1 |
| 20260507064034 | 19 | 351 | 6.4 | 12.9 | 0.00 | 0.00 | 0.00 | 69 | 1018.1 |
| 20260507063533 | 18 | 350 | 4.8 | 12.9 | 0.00 | 0.00 | 0.00 | 67 | 1018.0 |